Regional Weather Roundup
Issued by NWS

Home | Current Version | Previous Version | Graphics & Text | Print | Product List | Glossary On
Versions: 1 2 3 4 5 6 7 8 9 10 11 12 13 14 15 16 17 18 19 20 21 22 23 24 25 26 27 28 29 30 31 32 33 34 35 36 37 38 39 40 41 42 43 44 45 46 47 48 49 50
000
ASUS43 KFSD 261902
RWRSD

WEATHER ROUNDUP FOR SOUTH DAKOTA
NATIONAL WEATHER SERVICE SIOUX FALLS SD
200 PM CDT TUE SEP 26 2017

NOTE: "FAIR" INDICATES FEW OR NO CLOUDS BELOW 12,000 FEET WITH NO
SIGNIFICANT WEATHER AND/OR OBSTRUCTIONS TO VISIBILITY.


SDZ001>005-009-010-012>017-262000-
NORTHWEST AND NORTH CENTRAL SOUTH DAKOTA

CITY           SKY/WX    TMP DP  RH WIND       PRES   REMARKS
BUFFALO          N/A     58  39  49 W15       30.06F
FAITH            N/A     60  41  49 W8        30.10S
MOBRIDGE       MOSUNNY   58  45  62 CALM      30.09F
$$

SDZ012>016-024>037-041>051-057-063-072>074-262000-
SOUTHWEST AND SOUTH CENTRAL SOUTH DAKOTA

CITY           SKY/WX    TMP DP  RH WIND       PRES   REMARKS
RAPID CTY ARPT PTSUNNY   63  39  42 SW5       30.13S
PIERRE         MOSUNNY   61  45  55 W5        30.10F
CUSTER         PTSUNNY   54  30  40 W12       30.18R
ELLSWORTH AFB  CLOUDY    62  38  41 N5        30.13R
PHILIP         SUNNY     66  41  40 VRB5      30.10F
PINE RIDGE     MOSUNNY   64  38  38 MISG      30.14F
WINNER         FAIR      64  46  52 CALM      30.13F
$$

SDZ004>011-016>023-039-040-262000-
NORTHEAST SOUTH DAKOTA

CITY           SKY/WX    TMP DP  RH WIND       PRES   REMARKS
ABERDEEN       PTSUNNY   58  46  64 NW8       30.10F
WATERTOWN      CLOUDY    54  48  80 NW10      30.09S
BROOKINGS      CLOUDY    54  48  80 W13       30.11S
SISSETON         N/A     57  49  74 NW12      30.06F
$$

SDZ017-020-022-023-036>040-048>070-262000-
SOUTHEAST SOUTH DAKOTA

CITY           SKY/WX    TMP DP  RH WIND       PRES   REMARKS
SIOUX FALLS    CLOUDY    55  49  80 W9        30.12F
HURON          MOSUNNY   59  46  62 NW8       30.12F
CHAMBERLAIN    MOSUNNY   63  49  61 W3        30.14S
MITCHELL       SUNNY     60  45  57 NW6       30.13F
YANKTON        MOSUNNY   60  47  61 NW13      30.14F
$$

ABBREVIATIONS USED IN REMARKS
   TC - TEMPERATURE IN CELSIUS
  WCI - WIND CHILL INDEX
   HX - HEAT INDEX
  VSB - VISIBILITY





USA.gov is the U.S. government's official web portal to all federal, state and local government web resources and services.